Showing default

KUIPER-00164, 67134

Orbit data source: Space-Track

KUIPER-00164, 67134 is a payload satellite owned by Kuiper Systems (US) in LEO that was launched on Mon, 15 Dec 2025 UTC via an ATLAS V 551 launch vehicle from the Air Force Eastern Test Range (AFETR). Payload-class satellites include a variety of spacecraft equipped with specific instruments for various scientific and technological missions. These include communications satellites like Starlink; space stations such as the ISS; scientific satellites like the Hubble; Earth observation satellites from companies like Planet Labs, Umbra, and HawkEye 360; GPS; miniature CubeSats for education and research; and military/defense satellites.

Loading next visibility...
Identifier
67134, 2025-301B
Orbit
LEO
Country
Flag of USUS
Related business
Manufacturer
Kuiper Systems
Mission
Operational Commercial Communications
Bus & Motor
KUIPER, Unknown motor
Mass
~490 kg wet, ~490 kg dry
Launch date (UTC)
2025-12-15 (6 months ago)
Launch vehicle
ATLAS V 551
Launch site
Air Force Eastern Test Range (AFETR)
Object type
Payload
Rocket body
Debris
Shape & HBR
Box + 2 Pan, 3.4 m
Radar Cross Section
2.326 m², Large (>1 m²)

Expand to show TLE details & history
Last TLE update: 1 day ago

TLE from 1 day ago
0 KUIPER-00164
1 67134U 25301B   26170.66061182  .00001714  00000-0  27386-3 0  9990
2 67134  51.9045 336.5113 0000725 210.8602 149.2316 14.76581939 28988
Epoch: 2026-06-19T15:51Z
TLE epoch observation values (Epoch: 2026-06-19T15:51:16.861Z)
Latitude
-0.00004°
Longitude
-169.19538°
Altitude
641.317 km
Speed
7.538 km/s
True Right ascension
22h 26m 02s
True Declination
0° 00' 00"
Sunlit
Object was in daylight at epoch
Visualization orbit readout
Latitude
Unknown
Longitude
Unknown
Altitude
Unknown
Speed
Unknown
Apparent Right ascension
Unknown
Apparent Declination
Unknown
Sunlit
N/A
Visualization observer readout
Local Sidereal Time
07:14:07
Azimuth
Unknown
Elevation
Unknown
Doppler factor
Unknown
Orbital elements
Apogee altitude
641.093 km
Perigee altitude
640.075 km
Semi-major axis
7,018.721 km
Eccentricity
0.00007
Inclination
51.9045°
RAAN
336.5113°
Arg. of periapsis
210.8602°
True anomaly
149.23585°
Mean anomaly
149.2316°
Eccentric anomaly
149.23372°
Mean motion
3.6911 °/min
Orbital period
97.53 mins
BSTAR
0.00027386
Loading maneuver chart data...
Computing Atmospheric mass density...
Loading historical data...
Loading historical data...
Loading historical data...
Loading historical data...
Loading historical data...
Loading historical data...
Loading historical data...

Documentation

Showing up to 5 results
|